StationID,Date,MaxTemp,MinTemp,Precipitation,Snowfall,SnowDepth
"USC00500832","2001-07-01",69.98,50.00,0.00,0.00,
"USC00500832","2001-07-02",62.06,53.96,0.00,0.00,0.00
"USC00500832","2001-07-03",53.96,53.96,241.00,0.00,0.00
"USC00500832","2001-07-04",53.96,50.00,23.00,0.00,0.00
"USC00500832","2001-07-05",53.96,50.00,23.00,0.00,0.00
"USC00500832","2001-07-06",51.98,50.00,89.00,0.00,0.00
"USC00500832","2001-07-07",51.08,51.08,165.00,0.00,0.00
"USC00500832","2001-07-08",53.06,50.00,188.00,0.00,0.00
"USC00500832","2001-07-09",51.08,50.00,119.00,0.00,0.00
"USC00500832","2001-07-10",53.96,48.92,10.00,0.00,0.00
"USC00500832","2001-07-11",60.08,48.92,20.00,0.00,0.00
"USC00500832","2001-07-12",59.00,51.08,3.00,0.00,0.00
"USC00500832","2001-07-13",51.08,51.08,142.00,0.00,0.00
"USC00500832","2001-07-14",51.08,51.08,107.00,0.00,0.00
"USC00500832","2001-07-15",51.98,51.08,5.00,0.00,0.00
"USC00500832","2001-07-16",59.00,51.98,0.00,0.00,0.00
"USC00500832","2001-07-17",55.04,53.06,124.00,0.00,0.00
"USC00500832","2001-07-18",60.98,55.04,0.00,0.00,0.00
"USC00500832","2001-07-19",68.00,55.04,0.00,0.00,0.00
"USC00500832","2001-07-20",71.06,55.04,0.00,0.00,0.00
"USC00500832","2001-07-21",80.96,55.94,0.00,0.00,0.00
"USC00500832","2001-07-22",78.08,55.04,0.00,0.00,0.00
"USC00500832","2001-07-23",57.02,53.06,0.00,0.00,0.00
"USC00500832","2001-07-24",57.02,53.06,5.00,0.00,0.00
"USC00500832","2001-07-25",60.98,53.06,0.00,0.00,0.00
"USC00500832","2001-07-26",60.08,53.06,0.00,0.00,0.00
"USC00500832","2001-07-27",64.04,53.96,5.00,0.00,0.00
"USC00500832","2001-07-28",57.02,53.96,0.00,0.00,0.00
"USC00500832","2001-07-29",62.06,55.94,0.00,0.00,0.00
"USC00500832","2001-07-30",57.02,53.96,0.00,0.00,0.00
"USC00500832","2001-07-31",64.94,53.96,0.00,0.00,0.00
"USC00500832","2001-08-01",55.94,53.96,46.00,0.00,0.00
"USC00500832","2001-08-02",57.02,53.96,20.00,0.00,0.00
"USC00500832","2001-08-03",60.08,50.00,0.00,0.00,0.00
"USC00500832","2001-08-04",69.08,50.00,5.00,0.00,0.00
"USC00500832","2001-08-05",55.94,55.04,5.00,0.00,0.00
"USC00500832","2001-08-06",69.08,55.04,8.00,0.00,0.00
"USC00500832","2001-08-07",60.98,50.00,0.00,0.00,0.00
"USC00500832","2001-08-08",62.06,50.00,0.00,0.00,0.00
"USC00500832","2001-08-09",73.94,50.00,0.00,0.00,0.00
"USC00500832","2001-08-10",71.96,51.08,0.00,0.00,0.00
"USC00500832","2001-08-11",78.08,55.04,0.00,0.00,0.00
"USC00500832","2001-08-12",66.02,51.08,0.00,0.00,0.00
"USC00500832","2001-08-13",78.98,51.08,0.00,0.00,0.00
"USC00500832","2001-08-14",73.94,53.06,0.00,0.00,0.00
"USC00500832","2001-08-15",68.00,53.06,0.00,0.00,0.00
"USC00500832","2001-08-16",69.08,53.96,0.00,0.00,0.00
"USC00500832","2001-08-17",57.92,53.96,0.00,0.00,0.00
"USC00500832","2001-08-18",64.04,53.96,5.00,0.00,0.00
"USC00500832","2001-08-19",64.04,55.94,46.00,0.00,0.00
"USC00500832","2001-08-20",57.02,55.04,89.00,0.00,0.00
"USC00500832","2001-08-21",55.04,53.06,122.00,0.00,0.00
"USC00500832","2001-08-22",53.96,51.98,97.00,0.00,0.00
"USC00500832","2001-08-23",53.96,51.98,28.00,0.00,0.00
"USC00500832","2001-08-24",57.02,53.06,13.00,0.00,0.00
"USC00500832","2001-08-25",55.94,51.98,140.00,0.00,0.00
"USC00500832","2001-08-26",55.04,50.00,41.00,0.00,0.00
"USC00500832","2001-08-27",55.94,50.00,165.00,0.00,0.00
"USC00500832","2001-08-28",55.94,53.06,15.00,0.00,0.00
"USC00500832","2001-08-29",57.92,53.06,36.00,0.00,0.00
"USC00500832","2001-08-30",55.04,53.06,135.00,0.00,0.00
"USC00500832","2001-08-31",55.94,51.98,48.00,0.00,0.00
"USC00500832","2001-09-01",53.96,51.98,109.00,0.00,0.00
"USC00500832","2001-09-02",53.96,51.08,277.00,0.00,0.00
"USC00500832","2001-09-03",55.04,53.06,145.00,0.00,0.00
"USC00500832","2001-09-04",57.02,51.98,58.00,0.00,0.00
"USC00500832","2001-09-05",57.92,51.08,71.00,0.00,0.00
"USC00500832","2001-09-06",53.06,48.02,135.00,0.00,0.00
"USC00500832","2001-09-07",57.92,51.98,0.00,0.00,0.00
"USC00500832","2001-09-08",55.94,48.02,20.00,0.00,0.00
"USC00500832","2001-09-09",60.98,48.02,0.00,0.00,0.00
"USC00500832","2001-09-10",62.96,44.06,0.00,0.00,0.00
"USC00500832","2001-09-11",66.92,51.98,0.00,0.00,0.00
"USC00500832","2001-09-12",55.04,50.00,102.00,0.00,0.00
"USC00500832","2001-09-13",53.96,51.98,43.00,0.00,0.00
"USC00500832","2001-09-14",59.00,51.98,0.00,0.00,0.00
"USC00500832","2001-09-15",62.06,53.06,8.00,0.00,0.00
"USC00500832","2001-09-16",57.92,51.08,13.00,0.00,0.00
"USC00500832","2001-09-17",62.96,53.06,107.00,0.00,0.00
"USC00500832","2001-09-18",55.94,51.98,81.00,0.00,0.00
"USC00500832","2001-09-19",53.06,51.08,185.00,0.00,0.00
"USC00500832","2001-09-20",53.06,50.00,119.00,0.00,0.00
"USC00500832","2001-09-21",51.98,50.00,61.00,0.00,0.00
"USC00500832","2001-09-22",53.06,51.08,114.00,0.00,0.00
"USC00500832","2001-09-23",53.06,48.02,168.00,0.00,0.00
"USC00500832","2001-09-24",55.04,51.98,0.00,0.00,0.00
"USC00500832","2001-09-25",53.06,51.08,20.00,0.00,0.00
"USC00500832","2001-09-26",51.98,51.08,48.00,0.00,0.00
"USC00500832","2001-09-27",51.08,50.00,18.00,0.00,0.00
"USC00500832","2001-09-28",55.04,50.00,71.00,0.00,0.00
"USC00500832","2001-09-29",53.96,50.00,28.00,0.00,0.00
"USC00500832","2001-09-30",51.08,48.92,361.00,0.00,0.00
"USC00500832","2001-10-01",50.00,44.06,102.00,0.00,0.00
"USC00500832","2001-10-02",50.00,44.06,91.00,0.00,0.00
"USC00500832","2001-10-03",50.00,48.02,58.00,0.00,0.00
"USC00500832","2001-10-04",57.02,44.96,0.00,0.00,0.00
"USC00500832","2001-10-05",60.08,44.96,0.00,0.00,0.00
"USC00500832","2001-10-06",55.04,46.04,20.00,0.00,0.00
"USC00500832","2001-10-07",48.02,46.94,18.00,0.00,0.00
"USC00500832","2001-10-08",51.98,46.04,71.00,0.00,0.00
"USC00500832","2001-10-09",48.92,46.04,51.00,0.00,0.00
"USC00500832","2001-10-10",48.92,46.04,58.00,0.00,0.00
"USC00500832","2001-10-11",46.94,42.08,56.00,0.00,0.00
"USC00500832","2001-10-12",48.02,42.08,157.00,0.00,0.00
"USC00500832","2001-10-13",48.02,44.06,13.00,0.00,0.00
"USC00500832","2001-10-14",44.06,41.00,0.00,0.00,0.00
"USC00500832","2001-10-15",44.96,41.00,74.00,0.00,0.00
"USC00500832","2001-10-16",44.06,42.98,91.00,0.00,0.00
"USC00500832","2001-10-17",44.06,39.92,28.00,0.00,0.00
"USC00500832","2001-10-18",48.02,42.08,175.00,0.00,0.00
"USC00500832","2001-10-19",46.94,44.06,86.00,0.00,0.00
"USC00500832","2001-10-20",48.02,41.00,18.00,0.00,0.00
"USC00500832","2001-10-21",44.96,41.00,43.00,0.00,0.00
"USC00500832","2001-10-22",44.06,41.00,71.00,0.00,0.00
"USC00500832","2001-10-23",44.96,41.00,10.00,0.00,0.00
"USC00500832","2001-10-24",41.00,37.04,91.00,0.00,0.00
"USC00500832","2001-10-25",39.02,33.98,71.00,0.00,0.00
"USC00500832","2001-10-26",42.98,33.98,112.00,0.00,0.00
"USC00500832","2001-10-27",41.00,37.94,119.00,0.00,0.00
"USC00500832","2001-10-28",42.08,39.02,58.00,0.00,0.00
"USC00500832","2001-10-29",44.96,42.08,170.00,0.00,0.00
"USC00500832","2001-10-30",46.94,37.04,20.00,0.00,0.00
"USC00500832","2001-10-31",41.00,39.92,18.00,0.00,0.00
"USC00500832","2001-11-01",42.08,39.92,15.00,0.00,0.00
"USC00500832","2001-11-02",41.00,39.92,137.00,0.00,0.00
"USC00500832","2001-11-03",46.94,39.92,145.00,0.00,0.00
"USC00500832","2001-11-04",46.94,35.06,132.00,0.00,0.00
"USC00500832","2001-11-05",41.00,35.06,64.00,0.00,0.00
"USC00500832","2001-11-06",,,,0.00,0.00
"USC00500832","2001-11-07",,,,0.00,0.00
"USC00500832","2001-11-08",,,,0.00,0.00
"USC00500832","2001-11-09",,,,0.00,0.00
"USC00500832","2001-11-10",,,,0.00,0.00
"USC00500832","2001-11-11",,,,0.00,0.00
"USC00500832","2001-11-12",,,,0.00,0.00
"USC00500832","2001-11-13",,,,0.00,0.00
"USC00500832","2001-11-14",,,,0.00,0.00
"USC00500832","2001-11-15",,,,0.00,0.00
"USC00500832","2001-11-16",,,,0.00,0.00
"USC00500832","2001-11-17",46.04,37.94,18.00,,0.00
"USC00500832","2001-11-18",42.98,39.92,0.00,0.00,0.00
"USC00500832","2001-11-19",46.04,42.98,13.00,0.00,0.00
"USC00500832","2001-11-20",46.94,46.04,20.00,0.00,0.00
"USC00500832","2001-11-21",46.94,41.00,18.00,0.00,0.00
"USC00500832","2001-11-22",44.06,41.00,64.00,0.00,0.00
"USC00500832","2001-11-23",42.98,41.00,38.00,0.00,0.00
"USC00500832","2001-11-24",41.00,35.06,3.00,0.00,0.00
"USC00500832","2001-11-25",37.04,35.06,0.00,0.00,0.00
"USC00500832","2001-11-26",35.06,24.08,0.00,0.00,0.00
"USC00500832","2001-11-27",30.02,21.02,0.00,0.00,0.00
"USC00500832","2001-11-28",30.92,21.02,0.00,0.00,0.00
"USC00500832","2001-11-29",32.00,21.02,0.00,0.00,0.00
"USC00500832","2001-11-30",24.08,21.02,0.00,,0.00
"USC00500832","2001-12-01",26.06,17.06,0.00,0.00,0.00
"USC00500832","2001-12-02",26.96,17.06,0.00,0.00,0.00
"USC00500832","2001-12-03",28.94,17.96,8.00,25.00,
"USC00500832","2001-12-04",35.06,28.94,48.00,51.00,
"USC00500832","2001-12-06",41.00,33.98,,,
"USC00500832","2001-12-08",46.04,33.98,231.00,0.00,
"USC00500832","2001-12-09",39.02,33.08,36.00,0.00,
"USC00500832","2001-12-10",39.02,37.04,41.00,0.00,
"USC00500832","2001-12-11",41.00,37.94,43.00,0.00,
"USC00500832","2001-12-12",39.92,37.94,46.00,0.00,
"USC00500832","2001-12-13",39.92,35.06,112.00,0.00,
"USC00500832","2001-12-14",35.96,32.00,0.00,0.00,
"USC00500832","2001-12-15",32.00,28.94,58.00,102.00,102.00
"USC00500832","2001-12-16",30.02,26.06,0.00,0.00,102.00
"USC00500832","2001-12-17",39.02,28.04,64.00,102.00,127.00
"USC00500832","2001-12-18",35.96,30.02,25.00,25.00,127.00
"USC00500832","2001-12-19",33.08,28.94,33.00,25.00,152.00
"USC00500832","2001-12-20",35.96,33.08,,76.00,203.00
"USC00500832","2001-12-21",35.96,33.98,107.00,25.00,203.00
"USC00500832","2001-12-22",39.92,33.98,0.00,0.00,
"USC00500832","2001-12-23",42.98,39.92,5.00,0.00,
"USC00500832","2001-12-24",46.04,41.00,66.00,0.00,
"USC00500832","2001-12-25",46.04,44.96,30.00,0.00,
"USC00500832","2001-12-26",48.92,37.94,10.00,0.00,
"USC00500832","2001-12-27",44.06,37.94,20.00,0.00,0.00
"USC00500832","2001-12-28",44.06,41.00,23.00,0.00,0.00
"USC00500832","2001-12-29",42.98,41.00,3.00,0.00,0.00
"USC00500832","2001-12-30",44.06,41.00,0.00,0.00,0.00
"USC00500832","2001-12-31",42.98,37.94,0.00,0.00,0.00
"USC00500832","2002-01-01",46.04,37.94,0.00,0.00,
"USC00500832","2002-01-02",44.06,39.92,18.00,0.00,0.00
"USC00500832","2002-01-03",39.92,39.02,20.00,0.00,0.00
"USC00500832","2002-01-04",41.00,37.94,86.00,0.00,0.00
"USC00500832","2002-01-05",46.94,37.94,5.00,0.00,0.00
"USC00500832","2002-01-06",46.94,44.96,58.00,0.00,0.00
"USC00500832","2002-01-07",46.04,44.06,66.00,0.00,0.00
"USC00500832","2002-01-08",44.06,41.00,66.00,0.00,0.00
"USC00500832","2002-01-09",44.06,41.00,3.00,0.00,0.00
"USC00500832","2002-01-10",44.96,42.08,8.00,0.00,0.00
"USC00500832","2002-01-11",44.06,42.08,0.00,0.00,0.00
"USC00500832","2002-01-12",42.98,37.04,226.00,0.00,0.00
"USC00500832","2002-01-13",46.04,35.06,8.00,0.00,0.00
"USC00500832","2002-01-14",39.02,37.04,18.00,0.00,0.00
"USC00500832","2002-01-15",39.02,37.04,10.00,0.00,0.00
"USC00500832","2002-01-16",39.02,35.06,28.00,0.00,0.00
"USC00500832","2002-01-17",37.04,33.98,8.00,0.00,0.00
"USC00500832","2002-01-18",39.02,37.04,81.00,0.00,0.00
"USC00500832","2002-01-19",39.02,37.04,33.00,0.00,0.00
"USC00500832","2002-01-20",39.02,35.96,99.00,0.00,0.00
"USC00500832","2002-01-21",37.04,30.92,25.00,0.00,0.00
"USC00500832","2002-01-22",30.92,26.06,,0.00,0.00
"USC00500832","2002-01-23",35.96,26.06,71.00,,102.00
"USC00500832","2002-01-24",35.96,32.00,97.00,25.00,76.00
"USC00500832","2002-01-25",33.08,30.92,109.00,76.00,102.00
"USC00500832","2002-01-26",30.92,21.92,0.00,0.00,76.00
"USC00500832","2002-01-27",30.02,19.94,0.00,0.00,76.00
"USC00500832","2002-01-28",28.04,19.94,0.00,0.00,
"USC00500832","2002-01-29",33.08,19.94,152.00,152.00,
"USC00500832","2002-01-30",37.94,33.98,8.00,0.00,51.00
"USC00500832","2002-01-31",37.04,35.96,13.00,0.00,0.00
"USC00500832","2002-02-01",35.96,35.96,5.00,0.00,
"USC00500832","2002-02-02",39.02,35.96,10.00,0.00,
"USC00500832","2002-02-03",39.92,35.96,23.00,0.00,
"USC00500832","2002-02-04",39.92,35.96,69.00,0.00,
"USC00500832","2002-02-05",35.96,33.08,0.00,0.00,0.00
"USC00500832","2002-02-06",33.98,33.08,0.00,0.00,0.00
"USC00500832","2002-02-07",33.08,28.04,0.00,0.00,0.00
"USC00500832","2002-02-08",33.98,26.06,0.00,0.00,0.00
"USC00500832","2002-02-09",39.02,26.06,36.00,0.00,0.00
"USC00500832","2002-02-10",44.06,37.94,107.00,0.00,0.00
"USC00500832","2002-02-11",37.94,37.04,58.00,0.00,0.00
"USC00500832","2002-02-12",39.92,37.04,203.00,0.00,0.00
"USC00500832","2002-02-13",39.92,33.08,84.00,0.00,0.00
"USC00500832","2002-02-14",41.00,33.08,71.00,0.00,0.00
"USC00500832","2002-02-15",42.98,37.94,284.00,0.00,0.00
"USC00500832","2002-02-16",42.98,35.06,18.00,0.00,0.00
"USC00500832","2002-02-17",37.94,32.00,10.00,0.00,0.00
"USC00500832","2002-02-18",35.06,33.98,25.00,0.00,0.00
"USC00500832","2002-02-19",35.06,33.08,58.00,0.00,0.00
"USC00500832","2002-02-20",35.06,33.08,53.00,25.00,
"USC00500832","2002-02-21",33.98,28.94,41.00,,51.00
"USC00500832","2002-02-22",37.04,28.04,0.00,,25.00
"USC00500832","2002-02-23",37.04,26.96,0.00,0.00,
"USC00500832","2002-02-24",37.04,26.06,0.00,0.00,
"USC00500832","2002-02-25",35.06,26.96,28.00,0.00,
"USC00500832","2002-02-26",37.04,35.06,38.00,0.00,
"USC00500832","2002-02-27",37.04,35.06,66.00,0.00,
"USC00500832","2002-02-28",37.04,35.06,0.00,0.00,
"USC00500832","2002-03-01",37.94,35.96,30.00,0.00,
"USC00500832","2002-03-02",39.92,37.94,10.00,0.00,
"USC00500832","2002-03-03",,,,0.00,
"USC00500832","2002-03-04",41.00,33.08,,0.00,
"USC00500832","2002-03-05",33.08,24.98,0.00,0.00,
"USC00500832","2002-03-06",30.02,24.08,0.00,0.00,
"USC00500832","2002-03-07",35.06,23.00,0.00,0.00,
"USC00500832","2002-03-08",33.98,19.94,0.00,0.00,
"USC00500832","2002-03-09",33.08,19.94,0.00,0.00,
"USC00500832","2002-03-10",32.00,21.02,,0.00,
"USC00500832","2002-03-12",37.04,30.02,,,51.00
"USC00500832","2002-03-13",32.00,28.04,8.00,0.00,25.00
"USC00500832","2002-03-14",33.08,28.04,25.00,25.00,25.00
"USC00500832","2002-03-15",33.98,24.98,0.00,0.00,25.00
"USC00500832","2002-03-16",35.06,24.98,0.00,0.00,
"USC00500832","2002-03-17",39.92,24.98,0.00,0.00,
"USC00500832","2002-03-18",35.06,28.94,0.00,0.00,
"USC00500832","2002-03-19",39.02,26.06,0.00,0.00,
"USC00500832","2002-03-20",37.94,24.08,0.00,0.00,
"USC00500832","2002-03-21",35.96,24.08,0.00,0.00,
"USC00500832","2002-03-22",46.04,35.06,0.00,0.00,
"USC00500832","2002-03-23",46.04,37.94,5.00,0.00,0.00
"USC00500832","2002-03-24",50.00,33.98,0.00,0.00,0.00
"USC00500832","2002-03-25",42.98,33.98,0.00,0.00,0.00
"USC00500832","2002-03-26",41.00,37.94,66.00,0.00,0.00
"USC00500832","2002-03-27",41.00,35.96,30.00,0.00,0.00
"USC00500832","2002-03-28",39.92,35.06,8.00,0.00,0.00
"USC00500832","2002-03-29",39.02,35.06,30.00,0.00,0.00
"USC00500832","2002-03-30",46.94,35.06,10.00,0.00,0.00
"USC00500832","2002-03-31",37.94,32.00,48.00,0.00,0.00
"USC00500832","2002-04-01",42.98,32.00,0.00,0.00,0.00
"USC00500832","2002-04-02",46.94,33.98,0.00,0.00,0.00
"USC00500832","2002-04-03",48.02,33.08,0.00,0.00,0.00
"USC00500832","2002-04-04",48.92,33.08,0.00,0.00,0.00
"USC00500832","2002-04-05",41.00,33.08,5.00,0.00,0.00
"USC00500832","2002-04-06",37.94,33.98,3.00,0.00,0.00
"USC00500832","2002-04-07",51.08,28.04,0.00,0.00,0.00
"USC00500832","2002-04-08",51.08,28.04,0.00,0.00,0.00
"USC00500832","2002-04-09",42.98,33.98,0.00,0.00,0.00
"USC00500832","2002-04-10",44.96,37.04,36.00,0.00,0.00
"USC00500832","2002-04-11",44.96,30.92,3.00,0.00,0.00
"USC00500832","2002-04-12",44.96,30.92,3.00,0.00,0.00
"USC00500832","2002-04-13",42.98,39.92,41.00,0.00,0.00
"USC00500832","2002-04-14",44.06,39.92,56.00,0.00,0.00
"USC00500832","2002-04-15",44.96,37.94,0.00,0.00,0.00
"USC00500832","2002-04-16",42.98,33.98,0.00,0.00,0.00
"USC00500832","2002-04-17",51.08,33.98,0.00,0.00,0.00
"USC00500832","2002-04-18",57.02,33.08,0.00,0.00,0.00
"USC00500832","2002-04-19",51.08,33.08,0.00,0.00,0.00
"USC00500832","2002-04-20",50.00,42.08,0.00,0.00,0.00
"USC00500832","2002-04-21",,,,0.00,0.00
"USC00500832","2002-04-22",,,,0.00,0.00
"USC00500832","2002-04-23",,,,0.00,0.00
"USC00500832","2002-04-24",,,,0.00,0.00
"USC00500832","2002-04-25",,,,0.00,0.00
"USC00500832","2002-04-26",,,,0.00,0.00
"USC00500832","2002-04-27",,,,0.00,0.00
"USC00500832","2002-04-28",,,,0.00,0.00
"USC00500832","2002-04-29",,,,0.00,0.00
"USC00500832","2002-04-30",,,,0.00,0.00
"USC00500832","2002-05-01",,,0.00,0.00,0.00
"USC00500832","2002-05-02",48.02,39.02,0.00,0.00,0.00
"USC00500832","2002-05-03",53.06,37.94,0.00,0.00,0.00
"USC00500832","2002-05-04",42.98,35.96,41.00,0.00,0.00
"USC00500832","2002-05-05",48.92,35.96,0.00,0.00,0.00
"USC00500832","2002-05-06",50.00,35.96,0.00,0.00,0.00
"USC00500832","2002-05-07",53.96,35.96,0.00,0.00,0.00
"USC00500832","2002-05-08",46.94,39.92,0.00,0.00,0.00
"USC00500832","2002-05-09",48.02,42.08,0.00,0.00,0.00
"USC00500832","2002-05-10",48.92,42.08,18.00,0.00,0.00
"USC00500832","2002-05-11",44.06,42.08,122.00,0.00,0.00
"USC00500832","2002-05-12",44.96,42.98,173.00,0.00,0.00
"USC00500832","2002-05-13",46.04,44.96,41.00,0.00,0.00
"USC00500832","2002-05-14",46.04,42.08,137.00,0.00,0.00
"USC00500832","2002-05-15",44.06,42.08,48.00,0.00,0.00
"USC00500832","2002-05-16",46.94,42.98,3.00,0.00,0.00
"USC00500832","2002-05-17",48.02,46.04,3.00,0.00,0.00
"USC00500832","2002-05-18",48.02,42.98,56.00,0.00,0.00
"USC00500832","2002-05-19",53.96,42.98,0.00,0.00,0.00
"USC00500832","2002-05-20",71.06,44.06,0.00,0.00,0.00
"USC00500832","2002-05-21",64.04,50.00,0.00,0.00,0.00
"USC00500832","2002-05-22",50.00,46.94,53.00,0.00,0.00
"USC00500832","2002-05-23",46.94,44.96,89.00,0.00,0.00
"USC00500832","2002-05-24",46.94,44.96,0.00,0.00,0.00
"USC00500832","2002-05-25",55.94,46.04,0.00,0.00,0.00
"USC00500832","2002-05-26",62.06,50.00,0.00,0.00,0.00
"USC00500832","2002-05-27",53.96,48.92,0.00,0.00,0.00
"USC00500832","2002-05-28",51.08,48.92,58.00,0.00,0.00
"USC00500832","2002-05-29",51.08,48.02,8.00,0.00,0.00
"USC00500832","2002-05-30",48.02,46.04,18.00,0.00,0.00
"USC00500832","2002-05-31",51.98,46.04,20.00,0.00,0.00
"USC00500832","2002-06-01",48.92,46.94,69.00,0.00,0.00
"USC00500832","2002-06-02",53.06,46.94,56.00,0.00,0.00
"USC00500832","2002-06-03",51.08,46.94,3.00,0.00,0.00
"USC00500832","2002-06-04",51.08,48.92,145.00,0.00,0.00
"USC00500832","2002-06-05",50.00,46.94,20.00,0.00,0.00
"USC00500832","2002-06-06",55.94,46.04,36.00,0.00,0.00
"USC00500832","2002-06-07",51.98,46.04,8.00,0.00,0.00
"USC00500832","2002-06-08",53.96,46.04,0.00,0.00,0.00
"USC00500832","2002-06-09",64.04,51.08,0.00,0.00,0.00
"USC00500832","2002-06-10",53.06,48.92,28.00,0.00,0.00
"USC00500832","2002-06-11",51.98,44.96,0.00,0.00,0.00
"USC00500832","2002-06-12",57.92,44.96,0.00,0.00,0.00
"USC00500832","2002-06-13",66.02,48.02,0.00,0.00,0.00
"USC00500832","2002-06-14",73.94,53.06,0.00,0.00,0.00
"USC00500832","2002-06-15",80.96,55.04,0.00,0.00,0.00
"USC00500832","2002-06-16",57.92,53.06,0.00,0.00,0.00
"USC00500832","2002-06-18",,,,0.00,0.00
"USC00500832","2002-06-19",55.04,53.06,0.00,0.00,0.00
"USC00500832","2002-06-20",53.96,51.08,0.00,0.00,0.00
"USC00500832","2002-06-21",60.98,48.92,0.00,0.00,0.00
"USC00500832","2002-06-22",68.00,48.92,0.00,0.00,0.00
"USC00500832","2002-06-23",57.92,53.96,43.00,0.00,0.00
"USC00500832","2002-06-24",53.96,51.98,8.00,0.00,0.00
"USC00500832","2002-06-25",53.06,51.98,15.00,0.00,0.00
"USC00500832","2002-06-26",53.06,51.98,102.00,0.00,0.00
"USC00500832","2002-06-27",51.98,51.08,58.00,0.00,0.00
"USC00500832","2002-06-28",53.06,51.08,3.00,0.00,0.00
"USC00500832","2002-06-29",66.92,51.98,23.00,0.00,0.00
"USC00500832","2002-06-30",60.08,51.08,5.00,0.00,0.00
"USC00500832","2002-07-01",60.08,51.08,48.00,0.00,0.00
"USC00500832","2002-07-02",57.92,50.00,5.00,0.00,0.00
"USC00500832","2002-07-03",53.06,50.00,0.00,0.00,0.00
"USC00500832","2002-07-04",50.00,50.00,33.00,0.00,0.00
"USC00500832","2002-07-05",51.98,50.00,5.00,0.00,0.00
"USC00500832","2002-07-06",51.98,50.00,107.00,0.00,0.00
"USC00500832","2002-07-07",66.02,50.00,0.00,0.00,0.00
"USC00500832","2002-07-08",66.92,53.96,0.00,0.00,0.00
"USC00500832","2002-07-09",64.04,53.06,81.00,0.00,0.00
"USC00500832","2002-07-10",57.02,53.06,15.00,0.00,0.00
"USC00500832","2002-07-11",55.04,53.96,132.00,0.00,0.00
"USC00500832","2002-07-12",53.96,51.08,3.00,0.00,0.00
"USC00500832","2002-07-13",64.04,51.08,5.00,0.00,0.00
"USC00500832","2002-07-14",53.96,51.98,33.00,0.00,0.00
"USC00500832","2002-07-15",55.04,53.96,3.00,0.00,0.00
"USC00500832","2002-07-16",55.94,53.96,81.00,0.00,0.00
"USC00500832","2002-07-17",55.94,53.06,231.00,0.00,0.00
"USC00500832","2002-07-18",53.96,53.06,157.00,0.00,0.00
"USC00500832","2002-07-19",53.96,53.96,30.00,0.00,0.00
"USC00500832","2002-07-20",60.08,53.96,0.00,0.00,0.00
"USC00500832","2002-07-21",62.06,53.96,5.00,0.00,0.00
"USC00500832","2002-07-22",57.02,55.04,97.00,0.00,0.00
"USC00500832","2002-07-23",64.94,55.94,18.00,0.00,0.00
"USC00500832","2002-07-24",68.00,57.92,43.00,0.00,0.00
"USC00500832","2002-07-25",57.92,53.96,51.00,0.00,0.00
"USC00500832","2002-07-26",,,0.00,0.00,0.00
"USC00500832","2002-07-27",62.06,53.96,3.00,0.00,0.00
"USC00500832","2002-07-28",57.92,53.06,5.00,0.00,0.00
"USC00500832","2002-07-29",55.94,51.08,28.00,0.00,0.00
"USC00500832","2002-07-30",57.02,51.98,20.00,0.00,0.00
"USC00500832","2002-07-31",66.92,51.08,0.00,0.00,0.00
"USC00500832","2002-08-01",66.92,55.04,0.00,0.00,0.00
"USC00500832","2002-08-02",66.92,53.96,0.00,0.00,0.00
"USC00500832","2002-08-03",53.96,50.00,10.00,0.00,0.00
"USC00500832","2002-08-04",69.08,50.00,0.00,0.00,0.00
"USC00500832","2002-08-05",77.00,51.98,0.00,0.00,0.00
"USC00500832","2002-08-06",75.92,51.98,0.00,0.00,0.00
"USC00500832","2002-08-07",57.02,55.04,84.00,0.00,0.00
"USC00500832","2002-08-08",55.04,53.06,119.00,0.00,0.00
"USC00500832","2002-08-09",53.96,53.06,234.00,0.00,0.00
"USC00500832","2002-08-10",55.94,53.06,8.00,0.00,0.00
"USC00500832","2002-08-11",53.06,51.98,5.00,0.00,0.00
"USC00500832","2002-08-12",55.94,53.06,13.00,0.00,0.00
"USC00500832","2002-08-13",57.92,55.04,218.00,0.00,0.00
"USC00500832","2002-08-14",59.00,53.06,0.00,0.00,0.00
"USC00500832","2002-08-15",69.08,53.06,0.00,0.00,0.00
"USC00500832","2002-08-16",69.08,51.98,0.00,0.00,0.00
"USC00500832","2002-08-17",51.98,50.00,36.00,0.00,0.00
"USC00500832","2002-08-18",64.94,50.00,0.00,0.00,0.00
"USC00500832","2002-08-19",53.96,53.06,0.00,0.00,0.00
"USC00500832","2002-08-20",60.98,51.98,0.00,0.00,0.00
"USC00500832","2002-08-21",57.02,51.98,41.00,0.00,0.00
"USC00500832","2002-08-22",53.96,53.06,74.00,0.00,0.00
"USC00500832","2002-08-23",55.04,53.96,544.00,0.00,0.00
"USC00500832","2002-08-24",62.06,55.04,10.00,0.00,0.00
"USC00500832","2002-08-25",57.02,53.96,91.00,0.00,0.00
"USC00500832","2002-08-26",53.96,53.96,254.00,0.00,0.00
"USC00500832","2002-08-27",55.94,53.96,140.00,0.00,0.00
"USC00500832","2002-08-28",55.94,53.96,132.00,0.00,0.00
"USC00500832","2002-08-29",57.92,53.06,81.00,0.00,0.00
"USC00500832","2002-08-30",55.94,51.98,10.00,0.00,0.00
"USC00500832","2002-08-31",55.04,51.98,229.00,0.00,0.00
"USC00500832","2002-09-01",57.02,53.96,10.00,0.00,0.00
"USC00500832","2002-09-02",,,,0.00,0.00
"USC00500832","2002-09-03",,,,0.00,0.00
"USC00500832","2002-09-04",55.94,53.96,,0.00,0.00
"USC00500832","2002-09-05",69.98,51.08,0.00,0.00,0.00
"USC00500832","2002-09-06",62.06,50.00,0.00,0.00,0.00
"USC00500832","2002-09-07",60.08,50.00,99.00,0.00,0.00
"USC00500832","2002-09-08",53.06,50.00,127.00,0.00,0.00
"USC00500832","2002-09-09",55.04,51.08,61.00,0.00,0.00
"USC00500832","2002-09-10",53.06,51.08,183.00,0.00,0.00
"USC00500832","2002-09-11",55.04,51.08,91.00,0.00,0.00
"USC00500832","2002-09-12",59.00,50.00,66.00,0.00,0.00
"USC00500832","2002-09-13",60.98,46.94,0.00,0.00,0.00
"USC00500832","2002-09-14",55.94,46.94,0.00,0.00,0.00
"USC00500832","2002-09-15",57.02,48.02,112.00,0.00,0.00
"USC00500832","2002-09-16",53.06,51.98,196.00,0.00,0.00
"USC00500832","2002-09-17",53.96,51.98,170.00,0.00,0.00